Total_Precipitation_Accumulation
1.28 1.47 1.58 1.57 1.56 1.62 1.68 1.66 1.69 1.70 1.69 1.65 1.61 1.65 1.71 1.69 1.64 1.69 1.66 1.60 1.59 1.52 1.48 1.51 1.40 1.30 1.39 1.42 1.47 1.47 1.41 1.44 1.48 0.97 0.76 0.83 1.06 1.19 1.26 1.15 1.11 1.09 1.09
1.18 1.30 1.45 1.54 1.55 1.57 1.56 1.60 1.67 1.69 1.67 1.60 1.56 1.57 1.63 1.66 1.64 1.65 1.63 1.58 1.57 1.53 1.48 1.50 1.49 1.40 1.40 1.43 1.51 1.51 1.43 1.36 1.45 1.27 0.99 1.00 1.12 1.25 1.29 1.26 1.24 1.20 1.07
1.15 1.25 1.39 1.49 1.48 1.47 1.42 1.49 1.67 1.77 1.74 1.62 1.57 1.58 1.61 1.67 1.65 1.59 1.66 1.63 1.52 1.44 1.42 1.47 1.50 1.50 1.42 1.37 1.46 1.50 1.44 1.38 1.42 1.45 1.20 1.07 1.16 1.31 1.45 1.48 1.42 1.40 1.26
1.04 1.18 1.31 1.43 1.40 1.35 1.33 1.34 1.49 1.65 1.74 1.68 1.57 1.54 1.61 1.73 1.73 1.70 1.76 1.72 1.59 1.44 1.33 1.33 1.41 1.55 1.56 1.54 1.55 1.52 1.55 1.63 1.60 1.58 1.43 1.27 1.29 1.40 1.57 1.66 1.68 1.62 1.52
0.99 1.08 1.15 1.28 1.36 1.32 1.27 1.30 1.40 1.50 1.56 1.60 1.62 1.57 1.60 1.83 2.05 2.16 2.03 1.76 1.58 1.48 1.30 1.21 1.28 1.55 1.76 1.92 1.96 1.80 1.82 1.98 1.95 1.90 1.76 1.56 1.43 1.50 1.63 1.62 1.72 1.67 1.67
0.98 1.02 1.06 1.20 1.34 1.34 1.26 1.29 1.42 1.52 1.52 1.54 1.59 1.59 1.56 1.75 2.19 2.40 2.00 1.61 1.46 1.43 1.37 1.22 1.23 1.49 1.68 1.85 1.99 1.94 1.94 2.12 2.25 2.20 2.04 1.76 1.43 1.32 1.40 1.62 1.86 2.06 2.05
0.99 1.02 1.06 1.19 1.26 1.32 1.30 1.32 1.43 1.52 1.52 1.51 1.53 1.55 1.52 1.59 1.99 2.20 1.94 1.57 1.42 1.34 1.29 1.25 1.27 1.36 1.52 1.54 1.70 1.75 1.73 1.88 2.11 2.21 2.20 1.77 1.53 1.42 1.64 1.91 1.95 2.06 1.97
1.02 1.01 1.05 1.13 1.17 1.27 1.32 1.34 1.46 1.52 1.49 1.47 1.49 1.49 1.47 1.54 1.87 2.09 1.91 1.59 1.48 1.40 1.35 1.26 1.20 1.24 1.38 1.56 1.66 1.64 1.53 1.56 1.77 1.95 2.15 1.95 1.74 1.76 2.09 2.39 2.51 2.49 2.21
1.00 0.96 0.98 1.05 1.10 1.19 1.26 1.34 1.43 1.53 1.48 1.43 1.40 1.46 1.43 1.46 1.78 2.11 1.97 1.62 1.54 1.45 1.42 1.33 1.19 1.15 1.38 1.58 1.54 1.51 1.43 1.44 1.56 1.77 1.93 2.01 2.04 2.18 2.49 2.93 3.13 3.13 2.84
0.96 0.88 0.92 0.99 1.02 1.12 1.18 1.27 1.34 1.38 1.40 1.41 1.36 1.37 1.38 1.36 1.60 2.01 2.12 1.66 1.54 1.45 1.43 1.37 1.43 1.38 1.50 1.52 1.40 1.49 1.61 1.47 1.38 1.42 1.49 1.55 1.59 1.74 2.17 2.62 3.00 3.16 2.94
0.94 0.87 0.90 0.94 0.98 1.06 1.13 1.16 1.23 1.31 1.33 1.39 1.38 1.36 1.34 1.36 1.46 1.75 2.10 1.80 1.62 1.48 1.46 1.44 1.38 1.55 1.55 1.51 1.47 1.44 1.63 1.54 1.43 1.49 1.47 1.41 1.40 1.51 1.69 2.03 2.55 2.98 3.02
0.89 0.88 0.94 0.98 0.99 1.02 1.07 1.07 1.12 1.23 1.30 1.34 1.39 1.42 1.40 1.38 1.44 1.66 1.90 1.86 1.74 1.53 1.45 1.34 1.31 1.50 1.54 1.56 1.51 1.57 1.63 1.59 1.49 1.52 1.46 1.37 1.37 1.46 1.61 1.81 2.08 2.40 2.57
0.87 0.87 0.93 1.01 1.04 1.05 1.04 1.04 1.09 1.17 1.26 1.31 1.32 1.33 1.36 1.33 1.43 1.70 1.67 1.69 1.70 1.61 1.59 1.62 1.55 1.62 1.63 1.52 1.50 1.55 1.50 1.40 1.47 1.53 1.44 1.27 1.22 1.34 1.45 1.57 1.69 1.89 2.11
0.85 0.86 0.90 0.96 1.02 1.06 1.02 0.97 0.98 1.09 1.21 1.24 1.26 1.22 1.19 1.23 1.43 1.63 1.54 1.50 1.58 1.66 1.72 1.71 1.68 1.70 1.66 1.59 1.52 1.40 1.29 1.30 1.40 1.42 1.35 1.23 1.15 1.21 1.34 1.44 1.57 1.67 1.96
0.79 0.78 0.84 0.86 0.95 1.06 1.05 0.99 0.98 0.99 1.18 1.33 1.28 1.24 1.27 1.38 1.56 1.71 1.65 1.60 1.63 1.69 1.78 1.83 1.76 1.71 1.69 1.56 1.38 1.23 1.19 1.27 1.32 1.24 1.25 1.27 1.24 1.23 1.24 1.29 1.47 1.59 1.81
0.76 0.74 0.77 0.81 0.87 0.95 1.00 1.03 1.15 1.13 1.16 1.19 1.20 1.27 1.25 1.41 1.51 1.53 1.56 1.62 1.73 1.80 1.83 1.81 1.63 1.45 1.38 1.32 1.24 1.17 1.14 1.15 1.14 1.17 1.23 1.24 1.22 1.23 1.24 1.23 1.35 1.52 1.67
0.75 0.75 0.76 0.79 0.82 0.88 0.90 0.91 1.05 1.19 1.25 1.20 1.15 1.17 1.25 1.33 1.37 1.39 1.44 1.50 1.60 1.64 1.60 1.45 1.34 1.27 1.23 1.18 1.12 1.09 1.09 1.04 1.05 1.13 1.19 1.19 1.16 1.20 1.24 1.26 1.30 1.43 1.55
0.76 0.82 0.83 0.80 0.83 0.88 0.87 0.83 0.86 0.96 1.07 1.15 1.18 1.17 1.21 1.26 1.31 1.33 1.37 1.49 1.55 1.41 1.29 1.28 1.26 1.22 1.23 1.25 1.19 1.14 1.09 1.07 1.09 1.10 1.12 1.13 1.15 1.22 1.24 1.21 1.24 1.37 1.47
0.81 0.84 0.86 0.83 0.85 0.88 0.87 0.85 0.85 0.87 0.90 0.97 1.06 1.15 1.25 1.28 1.29 1.35 1.33 1.32 1.31 1.25 1.19 1.21 1.21 1.23 1.26 1.28 1.21 1.15 1.13 1.08 1.04 1.05 1.03 1.02 1.06 1.15 1.17 1.12 1.17 1.30 1.40
0.88 0.97 0.97 0.90 0.89 0.93 0.94 0.95 0.93 0.91 0.93 0.93 0.97 1.06 1.24 1.32 1.32 1.35 1.30 1.25 1.23 1.19 1.16 1.20 1.20 1.22 1.27 1.29 1.24 1.18 1.15 1.10 1.04 1.01 0.98 0.97 0.98 1.07 1.13 1.12 1.16 1.24 1.27
0.93 0.98 1.05 0.96 0.92 0.97 1.03 1.03 0.99 1.00 1.01 0.97 0.94 1.02 1.32 1.37 1.27 1.18 1.20 1.21 1.24 1.24 1.25 1.26 1.26 1.24 1.23 1.24 1.24 1.17 1.13 1.08 1.03 1.01 0.98 0.97 0.99 1.04 1.05 1.10 1.15 1.16 1.19
0.95 0.97 1.01 0.99 0.97 1.03 1.09 1.08 1.06 1.06 1.05 1.03 0.99 1.03 1.18 1.13 1.11 1.11 1.13 1.16 1.19 1.23 1.28 1.34 1.32 1.27 1.27 1.26 1.25 1.20 1.11 1.03 1.00 1.01 1.00 0.96 0.95 0.97 0.99 1.03 1.07 1.10 1.14
0.98 1.00 1.03 1.04 1.00 1.09 1.14 1.11 1.09 1.08 1.07 1.04 1.05 1.05 1.07 1.09 1.12 1.16 1.20 1.19 1.20 1.24 1.24 1.27 1.28 1.25 1.22 1.20 1.19 1.21 1.16 1.02 0.98 1.02 1.08 1.01 0.93 0.92 0.94 0.96 0.97 1.02 1.06
1.02 1.03 1.05 1.06 1.04 1.06 1.10 1.14 1.12 1.10 1.09 1.08 1.10 1.11 1.10 1.13 1.14 1.16 1.19 1.21 1.23 1.22 1.20 1.20 1.20 1.18 1.16 1.14 1.12 1.10 1.07 1.05 1.12 1.16 1.12 1.10 1.01 0.92 0.93 0.94 0.92 0.96 1.03
1.05 1.05 1.08 1.11 1.10 1.10 1.10 1.12 1.11 1.12 1.12 1.10 1.10 1.12 1.11 1.11 1.12 1.12 1.15 1.17 1.19 1.18 1.12 1.14 1.19 1.19 1.15 1.09 1.04 1.04 1.15 1.23 1.29 1.36 1.36 1.27 1.10 0.97 0.95 0.95 0.92 0.94 0.99
1.04 1.04 1.07 1.11 1.12 1.10 1.11 1.14 1.12 1.12 1.15 1.12 1.08 1.10 1.11 1.12 1.10 1.09 1.12 1.14 1.18 1.15 1.09 1.09 1.13 1.14 1.11 1.08 1.07 1.13 1.22 1.23 1.26 1.32 1.38 1.36 1.17 1.00 0.96 0.99 0.94 0.94 0.98